Date,TemperatureHighF,TemperatureAvgF,TemperatureLowF,DewpointHighF,DewpointAvgF,DewpointLowF,HumidityHigh,HumidityAvg,HumidityLow,PressureMaxIn,PressureMinIn,WindSpeedMaxMPH,WindSpeedAvgMPH,GustSpeedMaxMPH,PrecipitationSumIn
2013-1-1,35.7,33.3,30.5,32.9,26.6,21.0,96,77,59,29.32,29.06,23,9,32,0.12
2013-1-2,33.7,31.1,29.6,30.0,28.4,24.7,96,90,76,29.38,29.17,17,5,24,0.00
2013-1-3,32.8,31.0,29.6,30.6,29.7,27.3,97,95,89,29.48,29.31,9,1,12,0.02
2013-1-4,31.7,29.8,27.2,29.0,26.5,23.7,97,88,81,29.71,29.48,6,1,12,0.01
2013-1-5,35.1,33.4,31.3,31.0,28.7,25.3,89,83,72,29.58,29.12,12,4,20,0.09
2013-1-6,34.9,31.6,29.1,28.8,26.4,20.9,95,81,58,29.22,28.86,17,5,24,0.00
2013-1-7,32.1,30.2,28.0,29.3,26.8,23.5,96,87,74,29.27,28.86,12,5,19,0.00
2013-1-8,27.9,24.4,22.0,25.2,20.9,16.5,93,86,76,29.93,29.27,9,3,17,0.00
2013-1-9,30.2,24.0,17.3,28.2,19.6,15.0,95,84,61,29.99,29.80,8,4,10,0.00
2013-1-10,33.1,27.7,25.0,28.7,25.4,22.8,96,91,77,30.04,29.80,13,3,22,0.00
2013-1-11,34.3,31.4,27.7,30.9,29.1,26.0,97,91,75,30.01,29.72,18,3,24,0.00
2013-1-12,40.1,36.7,31.9,35.1,31.6,28.1,95,82,70,30.00,29.69,11,4,18,0.56
2013-1-13,41.1,38.6,36.1,36.6,34.8,32.8,95,86,76,29.78,29.51,10,6,17,0.74
2013-1-14,40.4,35.0,24.5,36.4,30.5,19.3,91,84,69,29.94,29.42,17,8,24,0.46
2013-1-15,29.8,25.1,23.1,20.7,17.7,2.6,85,75,33,30.15,29.94,10,4,17,0.00
2013-1-16,31.7,26.7,19.7,28.4,23.3,18.0,95,88,65,30.10,29.58,5,2,9,0.00
2013-1-17,19.7,15.3,12.4,18.0,13.0,9.5,93,90,86,29.86,29.52,8,3,10,0.00
2013-1-18,22.4,15.6,11.9,17.1,11.5,7.5,89,84,76,30.05,29.86,6,2,8,0.00
2013-1-19,36.1,30.7,22.1,31.2,25.1,17.1,92,80,72,30.05,29.67,25,8,36,0.00
2013-1-20,38.7,35.5,30.4,31.4,29.6,27.0,95,79,66,29.75,29.67,15,4,24,0.02
2013-1-21,42.3,38.0,31.0,32.7,30.1,26.3,83,73,63,29.76,29.46,26,6,39,0.00
2013-1-22,40.6,38.2,37.2,32.2,30.3,29.2,76,73,70,29.48,29.26,9,5,17,0.00
2013-1-23,39.1,37.2,34.6,30.4,29.0,26.9,78,72,68,29.27,29.12,10,5,15,0.00
2013-1-24,37.9,33.2,28.5,30.5,28.0,26.3,95,81,67,29.42,29.19,9,3,13,0.00
2013-1-25,30.8,19.8,5.2,29.8,13.2,-6.8,96,76,48,29.53,29.30,18,8,27,0.00
2013-1-26,6.3,2.7,-1.9,-5.6,-10.0,-14.0,69,55,40,29.82,29.53,11,5,26,0.00
2013-1-27,2.2,-2.2,-6.4,-5.9,-13.2,-17.6,74,59,48,30.06,29.82,12,7,17,0.00
2013-1-28,19.0,3.9,-5.5,13.7,-5.1,-18.3,87,66,47,30.06,29.61,17,7,28,0.00
2013-1-29,30.0,23.5,18.4,24.7,18.7,12.9,89,82,77,29.66,29.55,10,5,18,0.00
2013-1-30,41.2,35.3,30.1,32.8,29.9,24.6,93,81,66,29.66,29.51,23,7,33,0.07
2013-1-31,35.2,31.3,24.6,33.6,30.0,23.0,97,95,89,29.81,29.59,5,2,14,0.02
2013-2-1,38.8,36.1,27.3,31.8,29.6,25.8,95,77,68,29.81,29.50,10,4,18,0.01
2013-2-2,39.4,37.4,36.3,31.3,30.5,29.6,79,76,72,29.51,29.16,12,5,24,0.00
2013-2-3,41.0,35.5,31.3,30.9,28.5,25.6,82,76,65,29.35,29.09,14,3,24,0.00
2013-2-4,37.2,34.2,31.8,29.6,27.5,24.8,90,77,64,29.54,29.35,9,3,24,0.00
2013-2-5,39.9,32.2,27.5,29.3,25.1,21.6,85,75,61,29.54,29.40,9,3,13,0.00
2013-2-6,28.2,23.1,19.6,25.7,20.6,17.0,95,90,81,29.54,29.38,10,3,19,0.00
2013-2-7,34.9,28.3,21.1,28.8,23.7,17.8,94,83,68,29.49,29.14,12,4,21,0.00
2013-2-8,34.4,30.8,27.3,29.2,27.5,25.8,96,88,77,29.62,29.31,9,2,18,0.00
2013-2-9,38.7,34.7,30.9,32.2,30.0,27.1,93,83,73,29.52,28.81,18,7,28,0.13
2013-2-10,37.1,30.1,23.5,31.6,27.5,19.4,95,90,76,29.46,28.81,20,6,33,0.03
2013-2-11,28.5,21.5,15.8,21.1,11.0,-9.2,86,67,22,29.64,29.46,18,5,22,0.00
2013-2-12,32.7,29.4,25.1,26.5,24.2,20.7,94,81,73,29.64,29.55,7,4,16,0.00
2013-2-13,35.0,29.0,22.9,27.9,25.2,21.7,95,86,70,29.70,29.44,19,4,26,0.00
2013-2-14,37.1,30.6,25.9,29.9,26.2,23.1,96,84,68,29.45,29.04,19,5,26,0.00
2013-2-15,27.2,20.7,15.4,26.0,17.5,10.3,95,87,76,29.91,29.43,13,6,22,0.00
2013-2-16,28.9,20.9,14.8,23.3,12.5,3.8,84,71,45,29.95,29.54,10,3,18,0.00
2013-2-17,29.5,23.6,17.5,22.8,19.0,14.5,90,83,71,29.67,29.43,9,4,13,0.00
2013-2-18,20.4,15.7,10.0,14.9,2.3,-3.5,79,55,41,29.79,29.66,13,6,19,0.00
2013-2-19,30.4,21.9,9.9,24.1,14.0,1.5,84,72,52,29.72,29.04,11,4,20,0.00
2013-2-20,33.7,26.9,22.6,26.8,22.3,19.8,95,83,71,29.16,28.88,14,4,20,0.00
2013-2-21,25.6,23.3,18.9,23.3,21.5,17.0,95,93,89,29.16,29.03,5,1,18,0.00
2013-2-22,19.5,17.7,15.2,17.1,13.7,10.9,93,84,72,29.32,29.16,12,6,18,0.00
2013-2-23,29.6,29.6,29.6,24.2,24.2,24.2,80,80,80,29.02,29.02,5,5,5,0.00
2013-2-24,32.3,29.6,27.1,29.2,25.4,22.1,93,84,72,29.51,29.21,5,3,11,0.00
2013-2-25,34.5,32.0,28.7,26.7,25.0,20.9,84,75,67,29.52,29.33,15,4,21,0.00
2013-2-26,37.9,33.3,30.4,27.1,25.0,22.9,83,71,62,29.34,29.10,12,5,22,0.02
2013-2-27,36.9,31.1,27.1,28.5,25.7,20.3,93,81,68,29.16,29.00,16,5,22,0.00
2013-2-28,32.7,28.8,26.2,28.4,25.8,23.7,96,88,78,29.33,29.16,12,3,19,0.00
2013-3-1,29.5,26.6,23.6,26.8,24.5,19.5,95,92,84,29.85,29.33,7,2,9,0.00
2013-3-2,35.6,29.1,21.7,26.3,22.3,18.1,89,76,61,29.91,29.85,9,4,18,0.01
2013-3-3,37.1,34.7,32.3,28.6,26.8,25.1,80,73,63,30.25,29.90,19,9,27,0.01
2013-3-4,38.6,36.2,31.6,29.6,28.4,26.2,82,73,67,30.32,30.21,11,5,22,0.00
2013-3-5,38.8,32.5,27.6,27.5,25.6,23.7,89,76,58,30.21,29.87,8,4,18,0.00
2013-3-6,42.1,35.5,31.2,30.3,27.7,25.0,85,73,59,29.88,29.67,8,3,14,0.00
2013-3-7,39.1,34.3,30.6,29.8,28.3,25.4,94,79,63,29.67,29.31,25,12,36,0.00
2013-3-8,38.2,33.8,29.4,28.4,26.0,20.9,94,74,54,29.64,29.39,21,8,32,0.00
2013-3-9,39.3,31.6,26.7,29.2,27.1,24.2,95,84,62,30.05,29.64,9,2,32,0.00
2013-3-10,33.2,27.0,24.0,28.4,23.4,19.0,93,86,79,30.13,29.98,14,5,18,0.00
2013-3-11,31.6,26.9,24.6,23.5,19.8,13.5,91,75,58,30.22,30.13,11,6,15,0.00
2013-3-12,28.5,22.7,18.3,13.4,6.4,0.0,62,50,35,30.15,29.89,11,6,19,0.01
2013-3-13,25.0,18.9,13.8,10.8,2.9,-2.1,74,49,39,29.90,29.66,9,4,13,0.00
2013-3-14,26.1,18.5,12.3,18.0,12.3,7.5,85,77,64,29.72,29.61,13,4,17,0.00
2013-3-15,34.9,27.8,23.6,17.3,10.7,3.5,74,49,32,29.71,29.61,9,3,12,0.00
2013-3-16,34.8,27.0,22.1,19.6,9.6,1.3,81,49,34,30.01,29.71,6,2,8,0.00
2013-3-17,28.5,22.8,16.1,17.8,6.8,-2.0,78,51,35,30.05,29.97,9,4,11,0.00
2013-3-18,24.5,20.8,16.9,7.9,5.9,4.1,62,52,42,29.96,29.80,11,5,14,0.00
2013-3-19,22.1,16.8,10.2,10.5,1.6,-3.9,81,52,32,29.84,29.79,12,7,21,0.00
2013-3-20,22.7,14.7,9.3,10.5,1.6,-3.0,72,56,40,29.90,29.81,12,6,15,0.00
2013-3-21,26.7,19.5,11.6,12.3,6.5,2.3,68,57,41,30.11,29.90,12,4,16,0.00
2013-3-22,31.5,29.1,24.2,28.9,23.2,10.3,94,79,55,30.04,29.76,14,5,20,0.01
2013-3-23,32.9,27.6,24.9,24.9,22.6,18.6,90,81,66,29.76,29.70,6,3,16,0.01
2013-3-24,26.9,23.0,18.0,21.9,19.7,15.3,93,87,79,29.71,29.51,7,2,10,0.00
2013-3-25,20.1,11.6,3.4,18.4,7.6,-0.1,93,83,76,29.64,29.40,18,8,24,0.00
2013-3-26,17.1,9.6,3.6,13.2,5.2,-1.0,89,82,70,30.08,29.65,8,3,9,0.00
2013-3-27,27.1,17.3,7.6,16.5,10.1,3.9,89,74,50,30.12,30.04,5,2,13,0.00
2013-3-28,34.7,29.2,23.7,28.1,23.1,16.3,92,78,67,30.04,29.68,11,5,22,0.00
2013-3-29,39.9,34.6,30.3,31.3,28.4,26.2,96,79,63,29.86,29.67,11,3,21,0.04
2013-3-30,40.1,32.8,29.0,31.5,28.9,26.3,96,86,65,30.13,29.87,5,2,15,0.04
2013-3-31,41.0,33.0,28.6,30.4,27.1,24.8,94,79,58,30.15,30.03,9,2,13,0.01
2013-4-1,37.1,31.1,25.5,30.4,24.0,18.5,94,76,53,30.03,29.88,8,3,11,0.01
2013-4-2,39.9,32.2,26.2,23.9,19.8,16.8,73,60,44,30.07,29.94,7,3,9,0.00
2013-4-3,38.3,32.6,27.9,25.0,21.6,19.6,74,64,52,30.13,30.07,12,4,19,0.00
2013-4-4,38.1,31.9,26.8,21.9,18.0,9.0,71,57,43,30.10,29.66,11,5,14,0.00
2013-4-5,36.7,29.2,25.1,23.5,15.4,7.9,86,57,43,29.66,29.40,9,4,13,0.00
2013-4-6,30.7,25.8,18.6,25.3,20.7,10.4,93,81,57,29.47,29.33,11,4,16,0.01
2013-4-7,18.4,14.4,11.0,10.6,7.7,5.6,83,74,65,29.70,29.47,15,7,24,0.00
2013-4-8,19.5,13.5,8.4,9.2,5.8,3.2,81,72,57,29.70,29.23,12,6,16,0.00
2013-4-9,17.0,11.7,7.7,11.0,6.6,3.6,88,80,58,29.45,29.02,13,8,20,0.00
2013-4-10,14.0,9.0,5.4,6.7,2.6,0.1,86,75,57,29.90,29.45,15,9,20,0.00
2013-4-11,18.7,13.0,8.1,9.0,3.2,-0.3,82,65,45,30.04,29.90,14,7,18,0.00
2013-4-12,22.7,15.5,7.2,6.3,1.6,-2.7,71,54,37,30.07,30.00,14,9,20,0.00
2013-4-13,27.7,19.6,12.4,7.8,3.7,0.0,64,50,36,30.35,30.07,12,8,20,0.00
2013-4-14,35.7,26.9,17.6,17.2,8.3,2.3,70,46,32,30.45,30.35,10,5,15,0.00
2013-4-15,33.6,29.0,22.7,19.5,14.6,9.8,77,55,42,30.37,30.19,10,5,15,0.00
2013-4-16,30.8,25.8,19.9,14.3,9.9,6.3,67,51,37,30.19,30.02,12,7,19,0.00
2013-4-17,29.6,24.1,16.7,11.2,7.3,3.4,66,49,39,30.09,30.02,12,7,19,0.00
2013-4-18,35.5,28.3,20.6,17.4,12.7,6.2,68,52,39,30.10,30.03,12,5,15,0.00
2013-4-19,39.7,30.6,20.9,17.6,13.5,9.5,62,49,38,30.26,30.07,9,4,13,0.00
2013-4-20,40.1,33.9,27.4,21.3,16.6,12.5,65,50,35,30.32,30.26,8,3,13,0.00
2013-4-21,33.3,31.0,26.3,29.0,25.3,21.1,92,80,62,30.30,30.17,15,6,23,0.01
2013-4-22,43.2,34.9,24.0,29.2,25.7,22.3,95,71,48,30.41,30.29,11,4,18,0.01
2013-4-23,38.9,35.7,32.6,35.5,32.3,26.9,96,88,62,30.36,30.25,13,4,23,0.23
2013-4-24,39.7,34.4,31.3,34.8,32.0,30.3,97,91,80,30.27,29.76,7,2,15,0.00
2013-4-25,36.6,32.9,26.8,30.3,14.5,6.8,90,48,32,29.77,29.58,23,15,35,0.00
2013-4-26,36.5,28.9,20.9,19.1,9.5,4.9,52,44,32,29.67,29.41,13,6,23,0.00
2013-4-27,36.4,30.8,25.3,15.6,13.3,9.0,64,49,36,29.83,29.43,16,9,24,0.00
2013-4-28,36.4,30.3,24.8,17.8,9.8,1.3,58,42,33,30.09,29.83,13,8,19,0.00
2013-4-29,39.0,32.7,26.8,23.7,16.4,11.5,77,51,40,30.10,30.03,8,3,12,0.00
2013-4-30,40.9,34.4,30.1,27.1,22.8,18.5,76,62,51,30.03,29.68,6,2,11,0.00
2013-5-1,39.3,35.1,31.5,27.9,25.3,22.3,75,67,57,29.68,29.45,11,6,15,0.00
2013-5-2,40.9,35.7,31.6,35.6,31.9,26.1,95,86,72,29.77,29.56,6,2,9,0.15
2013-5-3,39.3,35.8,32.1,34.9,31.4,25.0,95,84,69,29.84,29.70,8,3,13,0.08
2013-5-4,35.1,31.8,28.3,33.0,28.7,25.8,95,88,71,29.88,29.67,8,3,13,0.20
2013-5-5,40.4,33.5,27.8,31.3,26.9,22.3,88,77,62,30.09,29.88,7,3,13,0.00
2013-5-6,39.4,34.0,29.0,28.2,24.0,20.8,83,67,52,30.18,30.08,12,4,14,0.00
2013-5-7,41.6,35.4,31.2,29.8,25.8,20.6,79,68,52,30.20,30.17,7,3,12,0.00
2013-5-8,47.5,38.6,30.7,31.3,27.9,25.4,81,66,48,30.20,30.13,9,3,16,0.00
2013-5-9,47.6,40.5,34.8,34.4,30.1,27.1,79,67,49,30.20,30.14,8,3,11,0.00
2013-5-10,53.6,44.1,36.3,35.4,30.7,23.0,86,61,34,30.15,29.86,8,2,12,0.00
2013-5-11,43.5,40.4,36.9,40.8,36.1,32.1,94,85,72,29.87,29.49,7,2,10,0.07
2013-5-12,47.9,42.1,37.9,42.8,38.7,35.5,96,88,75,29.49,29.41,6,1,8,0.09
2013-5-13,46.4,39.9,35.2,39.7,36.3,29.9,95,87,53,29.41,29.32,8,3,16,0.03
2013-5-14,41.4,35.7,31.3,33.9,28.0,19.9,96,75,44,29.59,29.38,13,4,18,0.08
2013-5-15,42.4,35.9,30.2,29.8,24.4,15.4,84,64,39,29.67,29.59,10,3,14,0.00
2013-5-16,40.8,37.0,32.7,33.1,30.2,26.7,94,77,66,29.61,29.35,14,6,25,0.14
2013-5-17,37.7,33.1,30.3,35.0,30.5,25.7,96,90,72,29.45,29.32,12,3,16,0.31
2013-5-18,32.2,29.5,26.1,27.1,21.5,14.3,95,73,49,30.10,29.45,13,6,17,0.00
2013-5-19,41.6,34.2,27.5,27.4,15.2,8.9,70,46,32,30.54,30.10,10,5,14,0.01
2013-5-20,43.1,37.1,29.7,30.0,24.8,17.0,79,61,43,30.57,30.48,9,3,14,0.00
2013-5-21,45.6,40.6,35.6,32.6,30.6,28.0,81,68,54,30.49,30.18,9,3,13,0.00
2013-5-22,46.7,42.1,38.1,41.5,36.2,31.3,92,80,68,30.19,30.05,6,2,9,0.03
2013-5-23,48.7,42.8,38.4,42.1,39.4,37.1,96,88,75,30.07,30.03,6,2,9,0.00
2013-5-24,54.9,47.8,39.8,41.6,38.3,34.8,91,71,53,30.04,29.92,10,4,15,0.00
2013-5-25,55.9,49.8,43.0,37.8,35.5,33.1,74,58,44,29.93,29.82,9,3,12,0.00
2013-5-26,53.2,44.3,38.1,40.7,36.4,33.1,87,74,51,29.84,29.78,6,2,10,0.00
2013-5-27,53.5,47.1,39.6,40.6,38.5,36.8,93,73,60,29.80,29.71,9,4,12,0.00
2013-5-28,71.7,55.1,35.2,45.0,39.9,33.3,95,62,30,29.72,29.58,8,3,14,0.00
2013-5-29,64.1,59.8,53.5,42.9,38.6,35.2,55,46,40,29.67,29.57,8,3,12,0.00
2013-5-30,59.2,54.1,46.3,44.0,40.0,35.3,78,59,49,29.94,29.67,7,3,10,0.00
2013-5-31,51.9,46.7,43.3,44.8,41.6,38.8,95,83,70,30.08,29.93,9,3,12,0.00
2013-6-1,48.4,43.6,41.4,44.3,41.9,40.1,97,94,83,30.14,30.08,7,2,8,0.05
2013-6-2,52.4,45.4,39.5,41.3,37.8,35.6,94,75,58,30.16,29.98,10,4,15,0.00
2013-6-3,48.2,45.0,42.4,37.0,34.9,33.6,77,68,59,29.98,29.64,11,4,19,0.00
2013-6-4,49.0,43.7,41.2,41.3,37.4,34.5,90,79,69,29.66,29.58,9,3,14,0.05
2013-6-5,52.7,49.5,43.3,36.1,34.3,32.4,66,56,49,29.89,29.85,8,5,16,0.00
2013-6-6,55.9,47.9,40.6,40.3,34.3,30.8,88,61,40,29.85,29.66,9,4,15,0.00
2013-6-7,62.9,52.9,40.9,41.1,35.9,32.6,86,54,38,29.86,29.66,10,4,16,0.00
2013-6-8,64.1,56.5,48.5,45.6,39.2,33.3,61,52,45,30.06,29.86,9,4,12,0.00
2013-6-9,64.9,57.5,52.0,43.9,40.9,37.8,66,54,42,30.15,30.06,8,4,13,0.00
2013-6-10,59.4,54.9,48.7,46.1,41.8,39.1,75,62,50,30.16,30.07,10,4,15,0.00
2013-6-11,64.3,58.1,52.6,45.7,41.7,38.2,65,55,41,30.07,29.93,11,4,16,0.00
2013-6-12,64.4,59.1,52.3,45.3,41.3,37.9,66,52,44,29.94,29.89,8,3,12,0.00
2013-6-13,58.7,53.5,48.1,47.0,42.9,38.3,83,68,54,30.11,29.91,9,3,13,0.00
2013-6-14,63.0,55.2,44.0,47.5,43.8,40.4,91,67,45,30.20,30.10,9,3,12,0.00
2013-6-15,64.7,58.9,53.1,50.0,46.0,41.4,72,63,53,30.22,30.16,6,3,8,0.00
2013-6-16,70.3,63.0,55.7,49.3,45.6,42.2,69,53,43,30.16,30.06,6,2,9,0.00
2013-6-17,73.2,66.5,59.6,50.6,45.5,40.7,58,47,35,30.06,29.80,6,3,8,0.00
2013-6-18,69.3,65.9,56.0,52.4,45.4,38.8,59,48,39,29.82,29.71,11,4,15,0.00
2013-6-19,56.1,50.7,46.3,46.6,43.6,40.4,91,77,58,29.92,29.75,16,4,22,0.18
2013-6-20,56.1,51.2,44.9,48.2,44.4,40.0,90,78,65,29.95,29.90,9,4,12,0.00
2013-6-21,51.7,47.0,39.9,43.3,40.0,37.2,95,77,60,30.02,29.95,10,4,12,0.00
2013-6-22,52.6,48.4,42.8,41.4,39.2,37.3,83,71,58,29.98,29.69,14,3,20,0.00
2013-6-23,54.2,50.7,47.3,44.4,41.8,39.6,79,72,65,29.69,29.57,9,3,14,0.00
2013-6-24,60.1,52.1,44.6,50.1,46.4,42.4,96,81,61,29.61,29.57,8,2,11,0.02
2013-6-25,67.0,59.5,49.8,52.9,47.6,41.8,88,66,52,29.58,29.53,6,2,8,0.00
2013-6-26,72.5,63.8,56.6,54.3,50.8,46.2,84,63,46,29.80,29.52,7,3,9,0.04
2013-6-27,60.7,54.0,47.1,54.0,49.6,44.8,96,85,75,30.01,29.80,8,2,11,0.00
2013-6-28,58.6,54.4,51.8,51.9,49.6,47.4,91,84,76,30.09,30.01,7,2,10,0.01
2013-6-29,59.4,53.2,49.7,52.0,48.5,44.0,93,84,71,30.06,29.94,9,3,11,0.00
2013-6-30,57.2,52.4,48.5,50.3,46.9,41.6,91,82,72,29.97,29.76,13,3,19,0.00
2013-7-1,52.2,48.1,44.7,44.6,41.8,38.7,89,79,70,29.76,29.46,15,4,20,0.03
2013-7-2,53.4,48.0,43.2,44.2,42.5,40.3,96,81,66,29.82,29.49,8,3,10,0.00
2013-7-3,55.7,49.3,45.5,45.0,41.9,39.8,87,76,61,29.94,29.82,7,3,10,0.00
2013-7-4,52.9,48.1,43.9,46.4,42.9,39.6,92,82,71,29.99,29.89,7,3,10,0.11
2013-7-5,53.2,48.5,45.4,46.9,43.9,41.9,91,84,72,30.00,29.92,5,2,8,0.14
2013-7-6,56.5,50.9,45.5,46.7,44.1,42.2,89,78,65,29.94,29.63,7,3,14,0.01
2013-7-7,52.8,46.9,43.3,49.1,44.7,41.5,96,92,81,29.63,29.51,10,3,16,0.15
2013-7-8,52.6,47.6,42.5,47.5,44.1,41.3,96,88,78,29.79,29.61,12,4,17,0.00
2013-7-9,57.2,50.9,44.2,49.0,44.1,40.4,89,78,59,30.00,29.79,10,4,14,0.00
2013-7-10,64.3,55.8,47.6,50.1,46.6,43.9,90,72,54,30.00,29.88,9,4,13,0.00
2013-7-11,70.8,61.4,53.4,51.8,46.2,41.8,68,58,41,29.88,29.83,10,3,13,0.00
2013-7-12,71.0,61.9,53.7,53.0,47.9,45.0,74,61,48,29.90,29.86,8,3,13,0.00
2013-7-13,66.2,60.7,52.4,51.7,47.3,40.7,82,62,53,30.10,29.89,9,3,11,0.00
2013-7-14,61.7,55.1,48.9,52.1,48.0,44.3,86,77,65,30.24,30.10,9,4,14,0.00
2013-7-15,62.0,54.2,47.9,52.9,48.5,44.2,90,81,67,30.26,30.17,10,3,13,0.00
2013-7-16,61.0,55.6,51.4,53.5,50.2,47.3,91,82,73,30.17,30.10,11,4,16,0.00
2013-7-17,65.8,58.2,52.3,58.0,54.0,49.9,93,86,74,30.11,30.03,13,5,19,0.00
2013-7-18,66.8,60.3,55.4,58.6,55.5,52.9,94,84,73,30.13,30.06,9,5,14,0.00
2013-7-19,58.0,53.6,50.1,54.3,49.7,47.7,96,87,74,30.17,30.11,11,6,19,0.00
2013-7-20,62.6,53.4,48.1,53.0,48.7,42.9,96,85,53,30.12,30.01,10,5,14,0.00
2013-7-21,67.3,59.1,48.4,49.5,44.8,41.4,87,60,43,30.02,29.89,16,7,26,0.00
2013-7-22,70.1,62.6,55.5,50.9,45.9,42.1,63,55,45,30.03,29.93,11,5,17,0.00
2013-7-23,70.5,64.8,59.9,53.7,47.6,41.2,70,54,43,30.04,29.97,6,2,17,0.00
2013-7-24,71.8,63.1,58.1,53.7,51.5,48.6,78,66,47,29.97,29.91,7,2,9,0.00
2013-7-28,67.9,59.2,51.7,58.9,54.8,50.9,97,86,72,30.24,30.11,6,2,0,0.00
2013-7-29,66.8,60.6,53.8,57.3,54.6,51.1,94,81,70,30.12,30.08,6,4,0,0.00
2013-7-30,64.2,59.6,52.7,56.8,53.5,50.4,92,80,73,30.14,30.10,7,4,0,0.00
2013-7-31,65.5,60.4,53.3,55.5,53.4,50.4,90,78,68,30.13,30.05,7,4,0,0.00
2013-8-1,62.9,56.2,51.3,52.6,50.2,47.0,93,81,65,30.05,29.90,6,3,0,0.00
2013-8-2,61.8,55.9,52.3,51.3,48.7,46.7,89,77,63,29.92,29.59,12,5,0,0.02
2013-8-3,57.7,55.8,52.7,49.8,47.3,45.6,82,73,66,29.81,29.57,12,6,21,0.01
2013-8-4,59.6,54.0,50.3,52.3,48.4,45.6,95,82,66,29.89,29.81,7,2,9,0.02
2013-8-5,57.9,53.1,50.5,51.1,48.0,46.3,94,83,69,29.89,29.83,8,3,12,0.08
2013-8-6,58.4,55.0,52.2,51.7,48.7,45.8,84,80,72,29.84,29.73,14,6,20,0.00
2013-8-7,57.4,55.1,52.5,49.0,47.8,46.4,85,76,70,29.74,29.59,14,6,21,0.00
2013-8-8,53.9,50.9,48.3,48.3,45.0,40.9,94,81,63,29.73,29.60,10,4,20,0.05
2013-8-9,59.2,53.0,48.5,51.3,47.3,42.7,96,81,67,29.68,29.54,16,4,27,0.04
2013-8-10,59.0,51.6,44.2,49.3,46.6,42.8,96,84,64,29.93,29.67,8,3,22,0.00
2013-8-11,52.5,49.7,46.4,51.5,47.9,44.1,97,93,82,29.94,29.87,9,2,12,0.77
2013-8-12,60.9,55.3,51.7,54.9,51.6,49.2,93,88,78,29.95,29.89,8,4,10,0.22
2013-8-13,56.2,54.1,48.7,53.0,50.7,46.1,93,88,77,29.94,29.90,7,2,9,0.00
2013-8-14,58.2,51.0,45.6,48.5,45.9,43.1,94,83,67,29.95,29.83,7,3,11,0.00
2013-8-15,59.4,53.5,47.6,52.5,48.3,44.6,92,83,72,29.83,29.68,8,3,11,0.00
2013-8-16,53.4,50.4,45.3,51.0,47.4,43.6,95,89,82,29.69,29.50,8,3,14,0.12
2013-8-17,61.4,55.7,51.8,53.5,49.3,45.8,87,79,71,29.50,29.41,9,5,14,0.00
2013-8-18,58.1,54.3,50.8,53.9,50.8,48.1,93,88,80,29.58,29.40,4,1,14,0.03
2013-8-19,54.1,52.2,49.0,50.8,48.7,46.3,95,88,81,29.68,29.58,4,2,6,0.25
2013-8-20,57.2,50.5,46.5,52.2,47.7,44.6,97,90,76,29.81,29.68,7,3,10,0.01
2013-8-21,51.7,50.0,48.4,50.3,47.9,44.8,97,92,81,29.81,29.68,5,2,7,0.46
2013-8-22,52.7,50.7,49.2,51.2,49.8,48.4,98,97,93,29.69,29.64,5,2,8,0.21
2013-8-23,56.0,51.5,46.6,51.3,48.5,43.8,98,90,79,29.65,29.48,11,5,17,0.00
2013-8-24,61.9,54.3,46.6,49.4,43.6,38.6,90,69,44,29.65,29.50,14,6,19,0.00
2013-8-25,63.5,55.2,48.0,46.9,40.2,33.9,72,57,37,29.66,29.60,7,3,9,0.00
2013-8-27,52.0,51.2,50.5,46.4,46.1,45.9,85,83,80,29.70,29.70,8,6,11,0.00
2013-8-28,56.0,50.4,45.7,48.7,45.6,41.8,92,84,70,29.70,29.41,9,2,13,0.16
2013-8-29,54.2,50.8,48.5,49.2,47.3,44.4,94,88,73,29.77,29.38,10,6,21,0.36
2013-8-30,57.0,52.2,47.8,52.9,49.1,46.4,97,90,74,29.90,29.77,6,3,9,0.01
2013-8-31,56.6,51.6,47.0,48.5,45.7,42.4,89,81,62,29.89,29.76,8,3,11,0.02
2013-9-1,57.2,52.5,46.7,50.3,46.5,42.1,86,80,74,29.78,29.63,6,2,8,0.00
2013-9-2,56.7,52.5,48.1,48.6,44.5,37.8,91,75,52,29.64,29.40,20,7,32,0.28
2013-9-3,58.0,53.0,49.4,48.5,44.5,41.5,83,73,62,29.43,29.20,22,6,48,0.00
2013-9-4,52.9,48.3,43.8,46.2,43.5,38.1,91,83,73,29.74,29.31,12,4,30,0.05
2013-9-5,53.9,48.9,43.4,42.2,40.0,37.7,84,72,60,29.93,29.73,14,4,19,0.00
2013-9-6,56.6,49.7,45.3,50.3,43.7,36.9,89,80,66,29.89,29.24,20,8,28,0.17
2013-9-7,50.7,47.8,45.9,49.9,46.7,44.4,98,96,86,29.57,29.27,13,3,18,0.29
2013-9-8,56.2,48.9,45.1,45.6,43.4,38.4,98,82,54,29.73,29.45,17,7,24,0.00
2013-9-9,54.6,50.7,48.0,49.9,45.8,41.3,94,83,71,29.71,29.50,19,6,31,0.25
2013-9-10,59.1,51.9,49.3,50.9,48.3,46.6,94,88,67,29.65,29.57,8,3,24,0.06
2013-9-11,53.2,48.6,45.7,47.6,45.1,40.6,97,88,69,29.82,29.53,12,4,18,0.28
2013-9-12,50.0,47.7,44.5,43.4,41.1,38.5,84,78,74,29.90,29.76,14,5,21,0.00
2013-9-13,55.6,50.8,47.8,49.5,44.9,41.4,97,81,63,29.81,29.72,16,5,22,0.08
2013-9-14,54.3,47.7,42.7,48.7,44.9,41.2,97,90,77,29.81,29.78,6,2,20,0.00
2013-9-15,57.6,50.6,44.3,45.0,41.0,35.1,88,70,55,29.81,29.66,9,3,13,0.00
2013-9-16,49.9,45.1,39.8,44.9,40.3,36.6,96,84,72,29.67,29.44,7,3,12,0.00
2013-9-17,47.7,43.8,40.6,42.9,39.6,36.7,94,85,77,29.47,29.39,5,1,7,0.00
2013-9-18,46.2,42.4,39.7,42.1,38.8,34.6,97,87,70,29.56,29.47,7,3,13,0.00
2013-9-19,47.6,40.4,34.8,37.4,33.3,27.3,91,76,52,29.53,29.35,11,4,15,0.00
2013-9-20,45.2,38.1,31.8,29.2,24.2,18.3,80,58,43,29.35,28.91,11,5,15,0.00
2013-9-21,41.6,38.1,35.9,36.6,30.0,18.1,93,74,45,28.91,28.84,12,5,15,0.09
2013-9-22,41.5,36.9,32.8,34.8,27.7,22.2,91,70,49,29.24,28.88,14,6,21,0.00
2013-9-23,42.9,36.2,31.2,25.8,21.8,18.0,75,57,37,29.68,29.24,13,7,21,0.00
2013-9-24,45.3,38.9,30.9,39.4,29.1,20.2,91,68,52,29.86,29.68,8,3,13,0.15
2013-9-25,49.4,45.1,38.8,42.4,39.1,35.7,91,80,63,29.72,29.33,30,6,44,0.30
2013-9-26,47.9,43.6,40.6,44.4,40.9,37.9,96,90,83,29.55,29.09,8,3,44,0.03
2013-9-27,47.1,43.8,39.6,38.8,36.9,35.3,88,77,68,29.09,28.75,19,9,32,0.00
2013-9-28,49.4,44.4,40.6,39.6,35.4,32.6,81,71,54,29.10,29.01,12,5,22,0.00
2013-9-29,43.7,40.7,37.8,36.6,31.7,28.1,84,71,57,29.31,29.09,12,7,20,0.00
2013-9-30,45.1,40.5,36.1,33.0,30.5,27.2,83,68,51,29.57,29.31,13,8,19,0.00
2013-10-1,46.1,38.8,32.5,32.4,28.5,25.6,78,67,56,29.71,29.57,10,4,15,0.00
2013-10-2,46.4,39.9,33.1,37.2,32.2,28.8,94,74,58,29.75,29.65,10,3,12,0.00
2013-10-3,46.4,43.0,39.1,37.8,35.1,29.8,79,73,68,29.65,29.23,25,12,38,0.00
2013-10-4,49.5,43.1,38.3,43.7,37.7,33.1,96,81,68,29.70,29.36,6,3,15,0.00
2013-10-5,45.7,39.1,34.4,39.6,35.4,32.5,96,87,73,29.73,29.62,9,3,12,0.00
2013-10-6,42.1,38.8,35.6,39.5,35.2,32.3,96,87,74,29.70,29.64,14,5,19,0.05
2013-10-7,47.9,41.6,36.6,39.3,37.4,34.4,94,85,70,29.78,29.56,8,3,15,0.07
2013-10-8,50.3,43.5,37.1,44.4,38.4,32.7,95,83,63,29.56,29.05,20,9,40,0.60
2013-10-9,43.2,38.8,36.0,35.5,30.6,26.2,88,73,52,29.69,29.07,23,13,31,0.00
2013-10-10,42.0,39.4,35.5,38.9,36.2,32.4,93,88,81,29.68,29.58,6,3,14,0.18
2013-10-11,47.6,43.3,40.5,41.2,38.4,35.6,95,83,71,29.78,29.61,10,3,16,0.12
2013-10-12,47.0,45.1,42.4,38.7,37.1,34.4,81,73,66,29.74,29.43,23,9,38,0.03
2013-10-13,46.5,42.9,39.1,41.1,37.6,33.3,93,82,61,29.60,29.35,16,4,23,0.25
2013-10-14,44.5,41.6,38.3,38.3,35.7,33.9,85,79,71,29.98,29.60,7,2,14,0.00
2013-10-15,50.5,46.5,41.3,44.4,40.2,35.2,88,79,70,30.08,29.90,13,4,21,0.02
2013-10-16,50.4,46.0,41.0,41.9,37.9,35.4,88,73,66,30.14,30.02,18,7,25,0.13
2013-10-17,48.9,46.4,44.3,38.3,36.3,33.4,75,68,59,30.03,29.59,21,10,28,0.01
2013-10-18,48.9,44.6,38.7,40.2,36.4,33.3,93,73,61,29.71,29.42,26,9,42,0.04
2013-10-19,45.3,43.4,40.7,38.6,35.5,32.2,85,74,68,29.60,29.27,24,6,32,0.00
2013-10-20,45.7,40.4,36.5,37.0,33.5,29.2,84,77,62,29.86,29.60,10,2,24,0.00
2013-10-21,43.2,38.1,35.3,33.5,32.1,29.0,87,79,63,29.95,29.86,9,3,19,0.00
2013-10-22,44.4,37.1,33.4,34.7,31.5,27.4,93,81,54,30.11,29.94,13,4,18,0.00
2013-10-23,38.2,31.7,26.7,30.5,26.3,18.7,95,81,58,29.95,29.66,7,2,11,0.00
2013-10-24,43.3,38.6,31.7,37.4,30.9,15.8,91,75,44,29.72,29.46,26,7,48,0.12
2013-10-25,45.2,39.2,36.0,33.9,31.8,29.5,83,75,60,30.10,29.61,8,3,14,0.00
2013-10-26,48.6,41.4,35.9,36.8,30.0,20.0,89,66,36,30.31,30.10,14,3,25,0.00
2013-11-2,40.9,40.1,39.5,31.4,31.2,30.9,72,70,68,29.68,29.66,10,4,15,0.00
2013-11-3,45.2,42.7,40.2,35.1,33.4,31.0,74,70,65,29.70,29.37,14,5,24,0.00
2013-11-4,43.4,38.6,33.7,34.8,32.4,26.3,90,78,69,29.37,29.18,10,4,17,0.00
2013-11-5,41.1,35.5,29.6,32.5,26.7,19.5,79,70,59,29.90,29.30,8,3,12,0.00
2013-11-6,33.7,29.5,23.6,25.8,17.9,9.6,73,62,37,29.98,29.80,10,4,13,0.00
2013-11-7,37.3,34.0,27.0,28.2,26.2,22.5,84,73,66,29.80,29.60,8,3,13,0.00
2013-11-8,35.9,29.8,26.3,26.0,24.1,21.3,91,80,59,30.15,29.78,6,2,9,0.00
2013-11-9,42.1,38.4,30.0,37.4,34.4,22.9,94,86,70,30.15,29.98,12,4,15,0.00
2013-11-10,40.3,36.7,30.2,37.5,34.9,28.2,95,93,88,29.98,29.65,11,3,16,0.52
2013-11-11,30.2,26.6,21.4,28.1,19.5,11.0,93,75,59,30.01,29.76,17,8,24,0.00
2013-11-12,27.0,21.0,15.1,15.0,8.5,2.6,76,59,41,30.07,30.00,8,3,11,0.00
2013-11-13,39.1,31.6,23.2,37.4,26.4,5.2,96,82,42,30.16,30.03,9,4,15,0.00
2013-11-14,40.7,37.6,32.1,38.5,33.7,22.5,97,86,64,30.11,29.82,17,6,25,0.00
2013-11-15,33.9,30.7,22.8,26.3,21.1,15.5,80,67,58,29.95,29.84,10,4,18,0.00
2013-11-16,26.0,21.7,18.5,15.5,9.2,3.4,73,58,47,30.16,29.91,11,7,19,0.00
2013-11-17,18.5,13.7,9.3,5.5,2.4,-1.3,74,60,51,30.16,30.13,12,6,22,0.00
2013-11-18,14.4,9.7,5.9,0.0,-1.5,-3.7,71,60,48,30.15,30.09,10,5,15,0.00
2013-11-19,14.7,9.0,5.5,8.5,-2.9,-6.1,76,58,45,30.10,29.90,8,3,13,0.00
2013-11-20,14.8,10.0,6.7,11.4,2.4,-3.4,88,71,54,29.92,29.78,16,6,25,0.00
2013-11-21,42.2,19.8,7.2,36.5,14.6,-0.3,93,80,66,29.78,29.01,16,5,20,0.09
2013-11-22,43.2,33.7,20.8,37.2,30.5,16.3,96,88,77,29.41,29.00,14,4,19,0.00
2013-11-23,31.5,25.6,18.3,27.6,20.8,15.0,94,83,69,29.91,29.41,8,2,16,0.00
2013-11-24,35.1,32.8,30.0,31.0,29.0,27.4,93,86,80,29.94,29.85,6,3,8,0.00
2013-11-25,34.5,31.2,27.4,28.4,26.3,24.1,95,82,66,29.86,29.63,8,2,12,0.00
2013-11-26,31.7,28.6,27.1,29.4,27.2,25.6,96,94,90,29.80,29.71,4,1,9,0.00
2013-11-27,29.5,26.3,19.6,27.5,24.5,14.3,96,93,79,29.80,29.61,12,2,14,0.00
2013-11-28,19.9,13.1,7.4,15.7,4.1,-5.0,87,67,56,29.92,29.61,12,6,19,0.00
2013-11-29,11.3,7.6,4.0,0.9,-4.1,-6.7,67,58,52,30.08,29.92,9,6,14,0.00
2013-11-30,11.8,6.9,2.2,0.3,-4.0,-7.2,73,60,48,30.33,30.08,16,4,19,0.00
2013-12-1,25.6,18.2,9.1,7.3,0.3,-4.5,59,45,33,30.48,30.33,12,2,18,0.00
2013-12-2,40.9,32.0,21.8,11.4,3.1,-1.2,49,29,20,30.63,30.46,8,2,10,0.00
2013-12-3,31.6,27.9,25.1,24.7,18.3,4.5,84,69,32,30.63,30.45,9,3,10,0.00
2013-12-4,34.1,32.1,28.0,32.3,27.5,22.6,95,83,75,30.45,30.30,6,2,8,0.03
2013-12-5,39.9,37.2,33.1,37.3,35.3,31.8,96,93,87,30.41,30.27,6,2,8,0.16
2013-12-6,43.7,41.1,38.3,38.0,36.7,35.1,89,84,79,30.44,30.39,6,3,9,0.00
2013-12-7,39.9,33.9,27.9,37.2,32.7,26.9,97,95,87,30.41,30.35,6,2,9,0.00
2013-12-8,43.1,27.6,25.2,42.1,26.5,23.9,98,96,89,30.40,30.34,6,3,9,0.00